Location: Gammelsbach
(49.5261°N, 8.9630°E)
Time: 15:15:40
(UTC+00:00)

NOSS 2-1 (C) - Pass Details

Date: 17 June 2025
Orbit: 377 x 1697 km, 63.3° (Epoch: 20 July)

Event Time Altitude Azimuth Distance (km) Brightness Sun altitude
Rises 22:55:18 0° 315° (NW) 2,404 7.5 -16.8°
Reaches altitude 10° 22:57:09 10° 312° (NW) 1,621 6.4 -16.8°
Maximum altitude 23:00:39 64° 230° (SW) 614 3.3 -16.9°
Enters shadow 23:02:24 33° 161° (SSE) 1,016 4.1 -16.9°
